Weather in Kaluga

Russia / Kaluga Oblast     54°30′49″N   36°15′40″E
temp.,
°C
wind,
m/s
gust,
m/s
humid.,
%
clouds,
%
prec.,
mm/h
press.,
hPa
HPBL,
m
23 may, mon
mon2300:00+3ne38733 0.0 1006192
03:000n22864 0.0 100835
06:00+3n27755 0.0 1008189
09:00+8nnw36525 0.0 10071167
12:00+12nw464249 0.0 10061988
15:00+13nw563955 0.0 10062137
18:00+12nw57505 0.0 10061568
21:00+6wnw366211 0.0 100782
24 may, tue
tue2400:00+4wnw3666100 0.0 1007109
03:00+3wnw2377100 0.0 100854
06:00+4wnw3968100 0.0 1008266
09:00+9nw51149100 0.0 1008954
12:00+12nw7123798 0.0 10072029
15:00+13nnw6938100 0.0 10082340
18:00+10n576161 0.0 10111059
21:00+4n247769 0.0 101375
25 may, wed
wed2500:00+3nnw237979 0.0 101475
03:00+1n22907 0.0 101642
06:00+3n137986 0.0 1016130
09:00+7nw346099 0.0 1017999
12:00+10nw3557100 0.0 10171419
15:00+10nw3466100 0.0 10171253
18:00+11nne236714 0.0 1016837
21:00+6ese229194 0.0 101619
26 may, thu
thu2600:00+4sse23959 0.0 101646
03:00+5sse249465 0.0 101578
06:00+7s2490100 0.0 1012111
09:00+15s4769100 0.0 1009423
12:00+11sse51289100 1.1 1007869
15:00+10ssw51197100 4.9 1002912
18:00+13wnw8158738 0.2 10021233
21:00+11w513891 0.3 1004538
27 may, fri
fri2700:00+11wsw6148790 0.1 1003717
03:00+10wsw6139551 0.2 1002619
06:00+9w61294100 0.8 1002836
09:00+11w7128996 1.1 1004953
12:00+13w7107934 0.6 10051076
15:00+16w7105466 1.0 10061932
18:00+15w6106294 0.2 10061223
21:00+10sw397799 0.2 1005185